Погода в Медвёдовской

Россия / Краснодарский край     45°26′57″N   39°00′36″E
темп.,
°C
ветер,
м/с
пор.,
м/с
влажн.,
%
обл.,
%
осадки,
мм/ч
давл.,
гПа
погр.,
м
17 мая, пн
пн1700:00+19вюв359214 0.0 100191
03:00+18зюз2291100 0.0 100311
06:00+17ююз41282100 0.4 1005388
09:00+20зюз3674100 0.4 1006394
12:00+23зюз4561100 0.0 1007913
15:00+24зюз4458100 0.0 10071419
18:00+22юз3573100 0.1 1008351
21:00+16ююз3588100 0.3 1011113
18 мая, вт
вт1800:00+14юз3892100 0.1 1011233
03:00+14юз3992100 0.1 1010299
06:00+14юз3894100 0.0 1011273
09:00+18юз45745 0.0 1011679
12:00+22юз56612 0.0 10101426
15:00+23юз465986 0.3 10101627
18:00+20юз377466 0.3 1010201
21:00+15ю11845 0.3 101011
19 мая, ср
ср1900:00+14ююз3683100 0.1 1010109
03:00+15юз3885100 0.1 1010273
06:00+13ююз4793100 1.0 1011371
09:00+15ю61188100 3.1 1012605
12:00+19юз912639 0.9 10121871
15:00+19юз9136542 2.0 10131707
18:00+17юз8127319 0.4 10141132
21:00+14юз7138699 0.7 1015653
20 мая, чт
чт2000:00+13юз714884 0.0 1016564
03:00+12юз513901 0.0 1017393
06:00+12ююз39920 0.0 1017261
09:00+18зюз33660 0.0 1017622
12:00+22ююв1154100 0.0 10171256
15:00+23в22515 0.0 10161405
18:00+21в46680 0.0 1015380
21:00+16всв410820 0.0 1015172
21 мая, пт
пт2100:00+15всв514760 0.0 1014297
03:00+14всв513790 0.0 1013262
06:00+14всв514825 0.0 1013302
09:00+20в69707 0.0 1013474
12:00+25в79610 0.0 1013702
15:00+26в79615 0.0 1012869
18:00+24в713715 0.0 1011643
21:00+21в717723 0.0 1011479